Regional Weather Roundup
Issued by NWS

Home | Current Version | Previous Version | Graphics & Text | Print | Product List | Glossary On
Versions: 1 2 3 4 5 6 7 8 9 10 11 12 13 14 15 16 17 18 19 20 21 22 23 24 25 26 27 28
000
ASUS45 KPSR 211110
RWRAZ

ARIZONA HOURLY REGIONAL WEATHER ROUNDUP
NATIONAL WEATHER SERVICE PHOENIX AZ
400 AM MST TUE FEB 21 2017

NOTE: FAIR INDICATES FEW OR NO CLOUDS BELOW 12,000 FEET WITH NO
SIGNIFICANT WEATHER AND/OR OBSTRUCTIONS TO VISIBILITY.

AZZ001>003-036-211200-
NORTHWEST ARIZONA

CITY           SKY/WX    TMP DP  RH WIND       PRES   REMARKS
BULLHEAD CITY  PTCLDY    57  52  82 CALM      30.29S
KINGMAN        CLEAR     43  39  86 E9        30.32F
$$

AZZ004>008-015-016-018-211200-
NORTH CENTRAL ARIZONA

CITY           SKY/WX    TMP DP  RH WIND       PRES   REMARKS
GRAND CANYON   MOCLDY    32  32 100 CALM      30.39S
WILLIAMS       CLEAR     32  30  93 S9        30.39F WCI  24
PRESCOTT       CLEAR     36  35  96 SW3       30.36F
FLAGSTAFF      CLEAR     33  32  96 SW5       30.39F WCI  29
PAYSON         CLEAR     39  37  93 CALM      30.38S
PAGE           MOCLDY    45  36  70 S5        30.29F
$$

AZZ009>014-017-211200-
NORTHEAST ARIZONA

CITY           SKY/WX    TMP DP  RH WIND       PRES   REMARKS
WINSLOW        CLEAR     35  32  88 SE5       30.35F WCI  31
SAINT JOHNS    CLEAR     35  30  82 S6        30.37S WCI  30
WINDOW ROCK    CLEAR     29  25  85 CALM      30.40S
SHOW LOW       CLEAR     32  28  86 CALM      30.40S
$$

AZZ023-211200-
GREATER PHOENIX AREA

CITY           SKY/WX    TMP DP  RH WIND       PRES   REMARKS
PHOENIX        PTCLDY    54  50  86 CALM      30.27F
BUCKEYE        CLEAR     48  48 100 N3        30.28F
LUKE AFB       CLEAR     51  51 100 N3        30.27S
DEER VALLEY    CLEAR     52  49  89 CALM      30.27F
SCOTTSDALE     CLEAR     50  47  89 CALM      30.27S
MESA-GATEWAY   CLEAR     48  46  93 E6        30.29S
$$

AZZ027-028-211200-
SOUTHWEST MARICOPA COUNTY AND PINAL COUNTY

CITY           SKY/WX    TMP DP  RH WIND       PRES   REMARKS
CASA GRANDE    NOT AVBL
GILA BEND      FAIR      52  50  93 SE6       30.27S
$$

AZZ503-504-507>509-211200-
SOUTHEAST ARIZONA

CITY           SKY/WX    TMP DP  RH WIND       PRES   REMARKS
TUCSON         CLEAR     47  42  83 SE6       30.32S
DAVIS-MONTHAN  CLEAR     46  43  90 SE5       30.31S
NOGALES        CLEAR     40  37  89 CALM      30.30F
SIERRA VISTA   CLEAR     43  39  85 SE3       30.34F
DOUGLAS        CLEAR     41  39  93 N7        30.32F
SAFFORD        CLEAR     42  39  89 SE6       30.29F
$$

AZZ020-021-025-026-031-211200-
SOUTHWEST ARIZONA

CITY           SKY/WX    TMP DP  RH WIND       PRES   REMARKS
YUMA           CLEAR     57  53  86 NE3       30.26F
$$

CAZ031-033-041-043-047-048-061-211200-
SOUTHERN CALIFORNIA

CITY           SKY/WX    TMP DP  RH WIND       PRES   REMARKS
DOWNTOWN L.A.  CLOUDY    60  56  86 CALM      30.30F
L.A. AIRPORT   MOCLDY    58  56  93 CALM      30.30F
SAN DIEGO      MOCLDY    56  51  84 CALM      30.31F
BURBANK        CLOUDY    57  53  86 W3        30.30F
ONTARIO        CLOUDY    56  53  90 CALM      30.30F
RIVERSIDE      CLOUDY    57  54  89 CALM      30.30F
PALM SPRINGS   PTCLDY    58  54  86 NW7       30.29F
EL CENTRO NAS  CLEAR     51  48  89 N5        30.27F
IMPERIAL       CLEAR     54  52  93 CALM      30.25F
BLYTHE         PTCLDY    53  53 100 N3        30.27F
NEEDLES        PTCLDY    58  51  78 SW3       30.27F
$$

NVZ020-UTZ003-211200-
SOUTHERN NEVADA-UTAH

CITY           SKY/WX    TMP DP  RH WIND       PRES   REMARKS
LAS VEGAS      PTCLDY    59  45  59 SE9       30.19S
SALT LAKE CITY PTCLDY    52  38  58 S23G46    30.02S
$$

NMZ009-TXZ055-211200-
NEW MEXICO-WEST TEXAS

CITY           SKY/WX    TMP DP  RH WIND       PRES   REMARKS
ALBUQUERQUE    CLOUDY    42  31  64 NW6       30.34S
EL PASO        CLEAR     45  30  55 SE6       30.24F
$$


........................KEY........................
SKY/WX - SKY CONDITION/WEATHER
TMP    - TEMPERATURE IN FAHRENHEIT
DP     - DEW POINT IN FAHRENHEIT
RH     - RELATIVE HUMIDITY IN PERCENT
WIND   - DIRECTION AND SPEED IN MILES PER HOUR (MPH)
VRB    - VARIABLE WIND DIRECTION
PRES   - MEAN SEA LEVEL PRESSURE IN INCHES OF MERCURY
         F - FALLING PRESSURE   R - RISING PRESSURE
         S - STEADY PRESSURE
VSB    - VISIBILITY IN MILES
HX     - HEAT INDEX IN FAHRENHEIT
WCI    - WIND CHILL INDEX IN FAHRENHEIT
TC     - TEMPERATURE IN CELSIUS WHICH IS ALSO KNOWN AS
         TEMPERATURE IN CENTIGRADE
AFB    - AIR FORCE BASE
         LUKE AFB IS LUKE AIR FORCE BASE
         DAVIS-MONTHAN IS DAVIS-MONTHAN AIR FORCE BASE
NAS    - NAVAL AIR STATION
         EL CENTRO NAS IS EL CENTRO NAVAL AIR STATION
N/A    - NOT AVAILABLE





USA.gov is the U.S. government's official web portal to all federal, state and local government web resources and services.